Location: B?jaj?g
(11.7167°N, 92.6667°E)
Time: 13:27:49
(UTC+00:00)

Delta 142 - Pass Details

Date: 18 September 2020
Orbit: 549 x 1588 km, 28.4° (Epoch: 25 October)

Event Time Altitude Azimuth Distance (km) Brightness Sun altitude
Exits shadow 22:04:27 39° 212° (SSW) 1,310 4.8 -23.8°
Maximum altitude 22:06:32 60° 152° (SSE) 949 4.5 -23.3°
Drops below altitude 10° 22:11:32 10° 73° (ENE) 2,162 7.4 -22.1°
Sets 22:13:41 0° 69° (ENE) 2,971 8.4 -21.6°
